Regional Weather Roundup
Issued by NWS Northern Indiana

Home | Current Version | Previous Version | Text Only | Print | Product List | Glossary On
Versions: 1 2 3 4 5 6 7 8 9 10 11 12 13 14 15 16 17 18 19 20 21 22 23 24 25 26 27 28 29 30 31 32 33 34 35 36 37 38 39 40 41 42 43 44 45 46 47 48 49 50
000
ASUS43 KIWX 260910
RWRIWX

KIWX WEATHER ROUNDUP
NATIONAL WEATHER SERVICE NORTHERN INDIANA
500 AM EDT WED JUL 26 2017

NOTE: "FAIR" INDICATES FEW OR NO CLOUDS BELOW 12,000 FEET WITH NO
SIGNIFICANT WEATHER AND/OR OBSTRUCTIONS TO VISIBILITY.

* THESE STATIONS ARE NOT UNDER NWS QUALITY CONTROL. THEY ALSO MAY NOT
  REPORT WEATHER SUCH AS PRECIPITATION OR FOG.

INZ001>027-261000-
NORTHERN INDIANA

CITY           SKY/WX    TMP DP  RH WIND       PRES   REMARKS
GARY*          CLOUDY    68  60  75 S3        30.13S
VALPARAISO     PTCLDY    66  60  81 S6        30.14F
MICHIGAN CITY* CLOUDY    66  59  77 S7        30.14S
LAPORTE*       MOCLDY    63  60  88 CALM      30.15S
KNOX*          CLOUDY    61  59  94 S6        30.13F
SOUTH BEND     PTCLDY    66  59  78 S8        30.14F
GOSHEN         PTCLDY    62  57  83 SE7       30.15F
MONTICELLO*    CLEAR     63  60  91 CALM      30.14S
LOGANSPORT*    CLEAR     57  57 100 E5        30.15F
ROCHESTER*     CLEAR     63  61  94 E5        30.16F
WARSAW*        PTCLDY    59  59 100 CALM      30.17S
AUBURN*        CLOUDY    59  55  88 CALM      30.17F
FORT WAYNE     CLOUDY    60  58  92 CALM      30.16F
HUNTINGTON*    CLEAR     61  60  96 CALM      30.16F
PERU/GRISSOM   CLEAR     61  61  98 SE3       30.14F
MARION*        CLEAR     59  57  94 CALM      30.17F

$$
INZ028>050-261000-
CENTRAL INDIANA

CITY           SKY/WX    TMP DP  RH WIND       PRES   REMARKS
LAFAYETTE      CLEAR     62  60  93 E5        30.12F
KOKOMO*        CLEAR     60  58  92 SE5       30.16F
MUNCIE*        CLEAR     62  58  86 SE5       30.16F
INDIANAPOLIS   PTCLDY    65  61  87 E6        30.15S

$$
MIZ043>046-050>051-056>058-064>065-071>073-077>080-261000-
SOUTHWEST LOWER MICHIGAN

CITY           SKY/WX    TMP DP  RH WIND       PRES   REMARKS
BATTLE CREEK   MOCLDY    64  59  83 S8        30.17F
BENTON HARBOR  MOCLDY    64  58  80 SE3       30.13F
COLDWATER*     PTCLDY    60  60  99 SE7       30.16F
HILLSDALE*     MOCLDY    59  55  88 CALM      30.18S
HOLLAND        PTCLDY    64  58  80 S8        30.13F
GRAND RAPIDS   CLOUDY    64  60  87 S7        30.13F
KALAMAZOO      CLOUDY    64  56  75 S6        30.16F
STURGIS*       CLOUDY    61  58  90 SE8       30.14F
THREE RIVERS*  FAIR      63  58  83 S3        30.16F

$$
OHZ001>008-015>018-024>025-261000-
NORTHWEST OHIO

CITY           SKY/WX    TMP DP  RH WIND       PRES   REMARKS
WAUSEON*       FAIR      55  55 100 CALM      30.18F
DEFIANCE       PTCLDY   N/A N/A N/A CALM      30.18F
FINDLAY        PTCLDY    61  57  87 CALM      30.18S
TOLEDO EXPRESS MOCLDY    58  58 100 CALM      30.17F
TOLEDO METCALF PTCLDY    61  59  93 SE3       30.19F
LIMA           CLEAR     57  57 100 SE3       30.19S

$$
AND FOR LAKE MICHIGAN COASTAL AND OPEN LAKE BUOY OBSERVATIONS

STATION/POSITION TEMP    WIND        PRES    VSBY  WAVE
                 AIR SEA DIR/SP/G                  HT/PER
                 (F)     (DEG/KT/KT) (MB)    (MI)  (FT/S)
CALUMET HARBOR    69     180/  4/  7 1019.6S
MICHIGAN CITY     69     160/  7/  9   N/A
BURNS HARBOR      70     180/  9/ 13 1020.3F
SAINT JOSEPH      65     160/  2/  6 1020.7
SOUTH LAKE BUOY   72 71  180/ 17/ 21 1018.4F         2/ 4
4 MI NW BRIDGMAN  68 72  190/ 10/ 12 1020.0          1/ 2
MICHIGAN CITY     69 74  180/ 12/ 16   N/A           1/ 2

$$
&&




USA.gov is the U.S. government's official web portal to all federal, state and local government web resources and services.